OBJECT AV, 57217

Orbit data source: Space-Track

You're viewing an uncataloged RSO

Recently launched and/or uncataloged RSOs may have evolving metadata. Metadata may include the following, but is not limited to: Owner, Manufacturer, Bus, Motor, and Mission.

OBJECT AV, 57217 is a satellite in SSO that was launched on Tue, 27 Jun 2023 UTC via a SOYUZ-2-1B launch vehicle from the Vostochny Cosmodrome (VOSTO). Unknown objects in Earth's orbit typically refer to objects detected orbiting the Earth but have not yet been identified or cataloged. These objects could be anything from previously untracked satellites, spent rocket stages, debris from satellite collisions, or even natural meteoroids temporarily captured by Earth's gravity.

Loading next visibility...
Identifier
57217, 2023-091AV
Orbit
SSO
Country
Flag of TBDTBD
Related business
Flag of RUKuzbass State Technical University (KuzGTU) (RU)
Manufacturer
Sputniks
Mission
Operational Amateur Technology
Bus & Motor
CUBESAT 3U, Unknown motor
Mass
3.4 kg wet, 3.4 kg dry
Launch date (UTC)
2023-06-27 (3 years ago)
Launch vehicle
SOYUZ-2-1B
Launch site
Vostochny Cosmodrome (VOSTO)
Object type
Unknown
Shape & HBR
Box, 0.2 m
Radar Cross Section
0.035 m², Medium (>0.1 m² and < 1m²)

Expand to show TLE details & history
Last TLE update: 5 hours ago

TLE from 5 hours ago
0 OBJECT AV
1 57217U 23091AV  26257.13135877  .00011047  00000-0  36337-3 0  9992
2 57217  97.4973 322.5905 0011509 136.0712 224.1446 15.31634583177989
Epoch: 2026-09-14T03:09Z
TLE epoch observation values (Epoch: 2026-09-14T03:09:09.397Z)
Latitude
-0.00005°
Longitude
-77.81471°
Altitude
479.701 km
Speed
7.623 km/s
True Right ascension
21h 30m 21s
True Declination
0° 00' 00"
Sunlit
Object was in full shadow at epoch
Visualization orbit readout
Latitude
Unknown
Longitude
Unknown
Altitude
Unknown
Speed
Unknown
Apparent Right ascension
Unknown
Apparent Declination
Unknown
Sunlit
N/A
Visualization observer readout
Local Sidereal Time
00:22:30
Azimuth
Unknown
Elevation
Unknown
Doppler factor
Unknown
Orbital elements
Apogee altitude
475.768 km
Perigee altitude
460.01 km
Semi-major axis
6,846.026 km
Eccentricity
0.00115
Inclination
97.4973°
RAAN
322.5905°
Arg. of periapsis
136.0712°
True anomaly
224.05284°
Mean anomaly
224.1446°
Eccentric anomaly
224.09871°
Mean motion
3.83165 °/min
Orbital period
93.95 mins
BSTAR
0.00036337
Loading maneuver chart data...
Computing Atmospheric mass density...
Loading historical data...
Loading historical data...
Loading historical data...
Loading historical data...
Loading historical data...
Loading historical data...
Loading historical data...

Documentation

Showing up to 5 results
|